map of LIS home
LIS - Airport
Location
City:  Lisbon, Lisboa, Portugal
Near (Alt.):Lisboa
Name:Aeroporto da Portela de Sacavem
ICAO:LPPT
IATA:LIS

Details
Type:Airport (Aerodrome, Airfield)
Use:Public/Civil, Military, International (customs port of entry)
Latitude:3846'53"N (38.781311)
Longitude:908'09"W (-9.135918)
Datum:WGS 1984
Elevation:374 ft (114 m)
Variation:2.26W (WMM2015 magnetic declination)
0.12 annual change
Runways:2
Longest:12484 × 148 ft (3805 × 45 m), paved

Time
Time Zone:UTC+0 (DST+1)
Local Time:

Weather
METAR:LPPT 181930Z 33013KT CAVOK 19/14 Q1010
TAF:LPPT 181700Z 1818/1924 34013KT CAVOK PROB30
TEMPO 1818/1821 33015G25KT
BECMG 1900/1902 35007KT
BECMG 1906/1909 05007KT
BECMG 1915/1918 21008KT
BECMG 1920/1923 03007KT

Related Locations
Nearby:
Farthest:NPL: 12263 mi / 19735 km
New Plymouth, TKI, NZ

Find:

   beyond  
but within

Other Information
Maps:
NOTAMs:
Links:
Sources:

  
  • flag of Portugal
  • flag of Lisbon
  

Sectional Chart

Flight Planning
at skyvector.com

Satellite Image

Google Maps Satellite view

 

Copyright © 2004-2018 Karl L. Swartz. All rights reserved.
The Great Circle Mapper name and logo are trademarks of the Great Circle Mapper.
All other trademarks mentioned herein belong to their respective owners.
Please see credits for attibutions and further copyright information.

  Follow gcmap on Facebook Follow gcmap on Twitter Follow gcmap on Google+ GCmap on LinkedIn

hCard Microformat

Geo Microformat